Key statistics
Satellite FENGYUN 1C DEB at a glance.
Uptime
9378
Days in orbit
Revolutions
≈ 14.7
Per day
Orbit
SSO
Sun Synchronous Orbit
Inclination
99.0
Latest
Satellite identification and parameters
Extended collection of information and parameters for FENGYUN 1C DEB.
Object identification
Identified? True
Debris? True
Object name: FENGYUN 1C DEB
International designator: 1999-025BLA
Object number (NORAD): 31220
Object ID (CCSDS): 31220
Country: PEOPLES REPUBLIC OF CHINA (PRC)
Current information (Y/N): Y
RCS size: SMALL
Orbital parameters
Decay date: Jan. 11, 2025
Period: 98.066 minutes
Inclination: 99.0279 deg
SMA: 7044.312 km
Apoapsis: 693.359 km
Periapsis: 638.995 km
RAAN: 66.1804 deg
Eccentricy: 0.0038587
Argument of periapsis: 344.2644 deg
Mean anomaly: 168.9217 deg
Mean motion: 14.68401699 rev/day
Mean motion (dot): 0.00038698 rev/day2
B* drag term: 0.0065904 1/REarth
Two-line elements (TLE)
Creation date: Feb. 11, 2024, 10:26 p.m.
Reference frame: TEME
Reference center: EARTH
Epoch: Feb. 11, 2024, 1:05 p.m. UTC
TLE line 0: 0 FENGYUN 1C DEB
TLE line 1: 1 31220U 99025BLA 24042.54543684 .00038698 00000-0 65904-2 0 9994
TLE line 2: 2 31220 99.0279 66.1804 0038587 344.2644 168.9217 14.68401699885877
Live tracking on map
Satellite FENGYUN 1C DEB has decayed and is no longer in orbit. No tracking available.
In-orbit conjunctions
Satellite FENGYUN 1C DEB has decayed and is no longer in orbit. No conjunctions available.
Associated space launch
Chinese polar orbiting meteorological satellite
FENGYUN 1C DEB was lifted into orbit during the mission ‘Long March 4B | Feng Yun 1C’, on board a Long March 4B space rocket.
The launch took place on May 10, 1999, 1:33 a.m. from Launch Complex 7.
For more information about the launch, click the button.
Long March 4B | Feng Yun 1C
Agency: N/A
Status: Launch Successful
Launch date: May 10, 1999, 1:33 a.m. UTC
Rocket: Long March 4B
Launch pad: Launch Complex 7
Location: Taiyuan Satellite Launch Center, People's Republic of China
...
Latest news about this satellite
There are no fresh news available about this satellite. Check back as we update our databases every day.
Newsletter sign-up
Weekly statistics, charts and insights to help you stay on top of the space industry.
